EW3803 Weather Reports


time (UTC)temp
C
wind
direction
speed
KPH
gust
KPH
rain 1hr
cm
rain 24hr
cm
rain mn
cm
humidity
%
barometer
mb
20260905080020 23 360 0.0 3.2 0.00 0.03 0.00 86 1017.6
20260905074528 22 360 0.0 6.4 0.00 0.03 0.00 89 1017.4
20260905073032 20 360 3.2 6.4 0.00 0.03 0.00 92 1017.5
20260905071532 20 43 6.4 9.7 0.00 0.03 0.00 94 1017.6
20260905070018 20 73 6.4 14.5 0.00 0.03 0.00 94 1017.6
20260905064526 20 87 8.0 14.5 0.00 0.03 0.00 93 1017.5
20260905063030 20 70 4.8 12.9 0.00 0.03 0.00 94 1017.5
20260905061538 20 43 3.2 8.0 0.00 0.03 0.00 94 1017.5
20260905060020 19 55 4.8 11.3 0.00 0.03 0.00 94 1017.5
20260905054532 19 89 4.8 11.3 0.00 0.03 0.00 94 1017.3
20260905053028 19 68 4.8 12.9 0.00 0.00 0.00 93 1017.3
20260905051532 18 71 4.8 11.3 0.00 0.00 0.00 93 1017.3
20260905050033 19 67 6.4 8.0 0.00 0.00 0.00 93 1017.2
20260905044527 19 67 3.2 8.0 0.00 0.00 0.00 93 1017.2
20260905043031 19 67 1.6 3.2 0.00 0.00 0.00 93 1017.2
20260905041546 18 67 1.6 4.8 0.00 0.00 0.00 93 1017.3
20260905040032 18 66 4.8 11.3 0.00 0.00 0.00 93 1017.6
20260905034541 18 84 9.7 12.9 0.00 0.00 0.00 92 1017.7
20260905033027 19 76 3.2 6.4 0.00 0.00 0.00 92 1017.5
20260905031504 19 69 3.2 9.7 0.00 0.00 0.00 92 1017.6
20260905030012 19 80 4.8 9.7 0.00 0.00 0.00 91 1017.6
20260905024520 20 32 1.6 4.8 0.00 0.00 0.00 91 1017.7
20260905023027 20 32 1.6 6.4 0.00 0.00 0.00 90 1017.9
20260905021534 20 15 1.6 4.8 0.00 0.00 0.00 90 1017.8
20260905020009 20 340 1.6 3.2 0.00 0.00 0.00 89 1017.8
20260905014515 20 340 0.0 3.2 0.00 0.00 0.00 89 1017.9
20260905013023 20 340 3.2 3.2 0.00 0.00 0.00 89 1018.0
20260905011529 20 340 1.6 3.2 0.00 0.00 0.00 89 1018.2
20260905010008 20 340 0.0 4.8 0.00 0.00 0.00 90 1018.0
20260905004517 20 340 3.2 6.4 0.00 0.00 0.00 90 1018.2
20260905003017 20 12 4.8 6.4 0.00 0.00 0.00 89 1018.6
20260905001527 20 296 1.6 3.2 0.00 0.00 0.00 89 1018.8
20260905000029 20 241 0.0 3.2 0.00 0.00 0.00 88 1018.6
20260904234511 20 242 1.6 4.8 0.00 0.00 0.00 87 1018.5
20260904233017 21 174 1.6 8.0 0.00 0.00 0.00 86 1018.6
20260904231526 21 61 0.0 4.8 0.00 0.00 0.00 86 1018.5
20260904230030 21 58 3.2 4.8 0.00 0.00 0.00 86 1018.2
20260904224529 21 63 3.2 6.4 0.00 0.00 0.00 86 1018.4
20260904223012 20 55 6.4 9.7 0.00 0.00 0.00 86 1018.6
20260904221520 21 99 8.0 12.9 0.00 0.00 0.00 86 1018.9
20260904220028 21 98 8.0 11.3 0.00 0.00 0.00 86 1018.9
20260904214531 21 44 1.6 6.4 0.00 0.00 0.00 86 1018.9
20260904213039 21 105 6.4 9.7 0.00 0.00 0.00 86 1019.1
20260904211516 21 89 6.4 11.3 0.00 0.00 0.00 86 1019.2
20260904210025 21 84 6.4 16.1 0.00 0.00 0.00 86 1019.1
20260904204527 21 112 16.1 19.3 0.00 0.00 0.00 86 1019.1
20260904203033 21 71 12.9 17.7 0.00 0.00 0.00 81 1019.2
20260904201514 22 57 3.2 11.3 0.00 0.00 0.00 77 1018.9
20260904200023 22 107 6.4 19.3 0.00 0.00 0.00 74 1018.5
20260904194533 23 88 8.0 22.5 0.00 0.00 0.00 69 1018.3
20260904193030 27 63 8.0 14.5 0.00 0.00 0.00 52 1017.7
20260904191535 27 290 1.6 3.2 0.00 0.00 0.00 52 1017.5
20260904190017 28 273 0.0 4.8 0.00 0.00 0.00 52 1017.2
20260904184526 28 265 3.2 9.7 0.00 0.00 0.00 53 1017.1
20260904183030 28 277 6.4 11.3 0.00 0.00 0.00 55 1017.1
20260904181537 30 235 4.8 12.9 0.00 0.00 0.00 48 1017.0
20260904180046 32 281 12.9 20.9 0.00 0.00 0.00 36 1017.0
20260904174520 32 315 11.3 17.7 0.00 0.00 0.00 39 1017.0
20260904173036 31 300 16.1 22.5 0.00 0.00 0.00 41 1017.1
20260904171600 30 333 8.0 17.7 0.00 0.00 0.00 47 1017.2
20260904170012 30 322 11.3 17.7 0.00 0.00 0.00 48 1017.3
20260904164518 29 308 8.0 19.3 0.00 0.00 0.00 53 1017.3
20260904163026 28 327 9.7 22.5 0.00 0.00 0.00 61 1017.7
20260904161529 27 338 14.5 25.7 0.00 0.00 0.00 67 1017.7
20260904160016 26 345 17.7 24.1 0.00 0.00 0.00 71 1018.4
20260904154532 25 360 16.1 22.5 0.00 0.00 0.00 76 1019.0
20260904153030 24 46 6.4 12.9 0.00 0.00 0.00 82 1019.6
20260904151533 23 327 6.4 14.5 0.00 0.00 0.00 85 1019.6
20260904150031 22 261 3.2 6.4 0.00 0.00 0.00 87 1019.7
20260904144514 22 271 4.8 14.5 0.00 0.00 0.00 87 1019.5
20260904143020 22 228 4.8 9.7 0.00 0.00 0.00 86 1019.1
20260904141526 23 248 9.7 19.3 0.00 0.00 0.00 81 1019.5
20260904140036 25 234 4.8 14.5 0.00 0.00 0.00 74 1020.9
20260904134514 25 119 9.7 12.9 0.00 0.00 0.00 72 1021.9
20260904133018 25 151 3.2 12.9 0.00 0.00 0.00 72 1020.8
20260904131523 26 278 8.0 19.3 0.00 0.00 0.00 71 1019.7
20260904130026 27 157 0.0 6.4 0.00 0.00 0.00 65 1020.0
20260904124531 27 167 4.8 9.7 0.00 0.00 0.00 67 1020.7
20260904123016 27 228 6.4 11.3 0.00 0.00 0.00 65 1020.2
20260904121527 28 104 8.0 14.5 0.00 0.00 0.00 60 1021.0
20260904120038 29 97 0.0 4.8 0.00 0.00 0.00 59 1020.3
20260904114529 29 173 1.6 8.0 0.00 0.00 0.00 58 1020.4
20260904113036 29 227 4.8 6.4 0.00 0.00 0.00 59 1019.6
20260904111519 29 64 0.0 14.5 0.00 0.00 0.00 58 1020.1
20260904110027 30 316 1.6 6.4 0.00 0.00 0.00 56 1020.1
20260904104547 28 225 0.0 6.4 0.00 0.00 0.00 62 1019.9
20260904103031 28 334 0.0 11.3 0.00 0.00 0.00 62 1020.4
20260904101529 27 244 8.0 14.5 0.00 0.00 0.00 63 1020.0
20260904100024 27 120 3.2 11.3 0.00 0.00 0.00 64 1020.5
20260904094540 27 338 1.6 3.2 0.00 0.00 0.00 66 1019.9
20260904093033 26 11 0.0 4.8 0.00 0.00 0.00 69 1019.7
20260904091535 25 15 8.0 20.9 0.00 0.00 0.00 1019.4
20260904090021 24 318 12.9 25.7 0.00 0.00 0.00 71 1018.8
20260904084530 23 309 9.7 17.7 0.00 0.00 0.00 72 1019.1
20260904083030 23 317 6.4 8.0 0.00 0.00 0.00 70 1019.8
20260904081532 23 93 0.0 4.8 0.00 0.00 0.00 70 1020.3